sat.trackr.live / text

‹ back to catalog

STARLINK-34113

NORAD 64010 · 2025-101S

PAYLOAD ACTIVE UNKNOWN

§ Identity

Operator
Country
US
Launch date
2025-05-14
Launch site
AFETR
Launch vehicle
Mass (kg)
RCS (m²)

Purposes: comms

External: N2YO · Heavens-Above · Gunter

§ Orbital elements

Epoch: 2026-05-24T17:51:26.911008Z

Period
94.27 min
Inclination
42.9982°
Eccentricity
0.0001129
Mean motion
15.27585364 rev/d
Perigee alt
482.3 km
Apogee alt
483.8 km
Semi-major
6,861.2 km
B*
5.0335e-4
RAAN
288.7189°
Arg perigee
272.6276°
Mean anomaly
87.4446°
Rev number
5,868

§ Raw data

STARLINK-341131 64010U 25101S   26144.74406147  .00013617  00000+0  50335-3 0  99962 64010  42.9982 288.7189 0001129 272.6276  87.4446 15.27585364 58681

JSON: /api/v1/satellites/64010 · /tle

For live sub-satellite position, see the globe view (requires WebGL).

§ Visibility from observer

Set your observer location to see the next 7 days of passes ≥ 10°. The values pass through the URL so the page stays shareable.

No JS? Fill the form by hand. The geolocation button needs JavaScript.